Location: Ammerl�gen
(47.2167°N, 9.6000°E)
Time: 04:37:15
(UTC+00:00)

Cosmos 2184 Rocket - Pass Details

Date: 21 April 2021
Orbit: 959 x 1002 km, 82.9° (Epoch: 16 May)

Event Time Altitude Azimuth Distance (km) Brightness Sun altitude
Rises 22:39:18 0° 354° (N) 3,724 8.2 -29.9°
Reaches altitude 10° 22:41:55 10° 359° (N) 2,766 7.3 -30.0°
Maximum altitude 22:48:08 55° 76° (ENE) 1,177 4.3 -30.2°
Enters shadow 22:48:10 55° 78° (ENE) 1,177 4.3 -30.2°
